Location: Palmerston North
(40.3500°S, 175.6170°E)
Time: 11:16:55
(UTC+13:00)

NOSS 3-2 (C) - Pass Details

Date: 24 January 2019
Orbit: 839 x 1373 km, 63.4° (Epoch: 17 February)

Event Time Altitude Azimuth Distance (km) Brightness Sun altitude
Exits shadow 23:03:16 34° 28° (NNE) 2,054 4.6 -21.4°
Maximum altitude 23:05:48 42° 66° (ENE) 1,794 4.4 -21.7°
Drops below altitude 10° 23:12:58 10° 132° (SE) 3,180 6.2 -22.5°
Sets 23:15:46 0° 139° (SE) 4,075 6.9 -22.8°
